Date String (YYYY-MM-DD hh:mm:ss) UTC,Instrument flags,Ambient pressure (hPa),Sample flow (lpm),Bypass flow (lpm),Sample temperature (°C),Ambient temperature (°C),ASC tube jacket temperature (°C),LED temperature (°C),Box temperature (°C),Sample RH (%),Span deviation,Mass concentration (μg/m³),Mass concentration (μg/m³),Mass concentration (μg/m³)
DateTimeUTC,F1_M11,P_M11,Q1_M11,Q2_M11,T1_M11,T2_M11,T3_M11,T4_M11,T5_M11,U1_M11,ZSPAN_M11,X0_M11,X2_M11,X1_M11
2022-03-22 08:00:00,,0827.1,4.98,0.00,22.2,21.3,00.0,31.2,23.9,09.7,0000.0,0004.32,0002.39,0001.61
2022-03-22 08:01:00,,0827.0,5.00,0.00,22.1,19.8,00.0,30.6,23.9,09.7,0000.0,0004.18,0002.34,0001.60
2022-03-22 08:02:00,,0827.0,5.00,0.00,22.1,21.3,00.0,31.2,23.8,09.7,0000.0,0004.01,0002.31,0001.59
2022-03-22 08:03:00,,0827.0,5.02,0.00,22.1,21.4,00.0,31.2,23.9,09.7,0000.0,0004.02,0002.32,0001.59
2022-03-22 08:04:00,,0827.0,4.99,0.00,22.2,22.1,00.0,31.2,24.1,09.6,0000.0,0004.07,0002.31,0001.58
2022-03-22 08:05:00,,0827.0,5.00,0.00,22.4,22.9,00.0,31.3,24.3,09.6,0000.0,0004.07,0002.32,0001.58
2022-03-22 08:06:00,,0827.0,5.00,0.00,22.5,23.1,00.0,31.3,24.4,09.5,0000.0,0004.19,0002.36,0001.58
2022-03-22 08:07:00,,0827.0,5.00,0.00,22.5,22.8,00.0,31.3,24.4,09.5,0000.0,0004.40,0002.42,0001.58
2022-03-22 08:08:00,,0827.0,4.99,0.00,22.5,22.6,00.0,31.3,24.3,09.5,0000.0,0004.33,0002.39,0001.58
2022-03-22 08:09:00,,0827.0,5.02,0.00,22.5,22.4,00.0,31.3,24.3,09.5,0000.0,0004.44,0002.40,0001.58
2022-03-22 08:10:00,,0827.0,4.99,0.00,22.4,22.2,00.0,31.3,24.2,09.5,0000.0,0004.32,0002.41,0001.60
2022-03-22 08:11:00,,0826.9,5.00,0.00,22.4,22.0,00.0,31.4,24.2,09.6,0000.0,0004.57,0002.40,0001.61
2022-03-22 08:12:00,,0826.9,5.01,0.00,22.4,21.9,00.0,31.4,24.2,09.6,0000.0,0004.76,0002.43,0001.61
2022-03-22 08:13:00,,0826.9,5.00,0.00,22.4,21.8,00.0,31.4,24.1,09.7,0000.0,0004.73,0002.42,0001.63
2022-03-22 08:14:00,,0826.9,5.00,0.00,22.4,21.7,00.0,31.4,24.1,09.8,0000.0,0004.78,0002.45,0001.65
2022-03-22 08:15:00,,0826.9,5.00,0.00,22.4,21.6,00.0,31.3,24.1,10.1,0000.0,0004.68,0002.45,0001.68
2022-03-22 08:16:00,,0826.9,4.99,0.00,22.3,21.5,00.0,31.3,24.1,10.1,0000.0,0004.81,0002.49,0001.71
2022-03-22 08:17:00,,0826.9,4.99,0.00,22.3,21.5,00.0,31.3,24.0,10.2,0000.0,0004.72,0002.49,0001.73
2022-03-22 08:18:00,,0826.9,5.00,0.00,22.3,21.4,00.0,31.3,24.0,10.2,0000.0,0004.80,0002.54,0001.75
2022-03-22 08:19:00,,0826.9,5.01,0.00,22.2,21.3,00.0,31.3,23.9,10.3,0000.0,0004.86,0002.59,0001.78
2022-03-22 08:20:00,,0827.0,5.01,0.00,22.2,21.2,00.0,31.3,23.8,10.3,0000.0,0005.59,0002.62,0001.80
2022-03-22 08:21:00,,0826.9,5.00,0.00,22.1,21.2,00.0,31.3,23.8,10.3,0000.0,0005.75,0002.68,0001.81
2022-03-22 08:22:00,,0826.9,5.00,0.00,22.1,21.1,00.0,31.2,23.6,10.4,0000.0,0005.69,0002.73,0001.82
2022-03-22 08:23:00,,0826.9,5.00,0.00,22.0,21.0,00.0,31.2,23.5,10.4,0000.0,0005.69,0002.73,0001.83
2022-03-22 08:24:00,,0827.0,5.00,0.00,21.9,20.9,00.0,31.2,23.5,10.5,0000.0,0005.74,0002.77,0001.85
2022-03-22 08:25:00,,0826.9,5.00,0.00,21.9,20.8,00.0,31.1,23.4,10.5,0000.0,0005.80,0002.81,0001.86
2022-03-22 08:26:00,,0827.0,5.00,0.00,21.8,20.7,00.0,31.1,23.4,10.6,0000.0,0005.78,0002.81,0001.86
2022-03-22 08:27:00,,0826.9,5.00,0.00,21.9,21.3,00.0,31.1,23.5,10.5,0000.0,0005.59,0002.73,0001.83
2022-03-22 08:28:00,,0827.0,5.00,0.00,22.0,22.2,00.0,31.1,23.8,10.5,0000.0,0005.64,0002.72,0001.83
2022-03-22 08:29:00,,0827.0,5.00,0.00,22.1,23.0,00.0,31.2,24.1,10.4,0000.0,0005.55,0002.67,0001.83
2022-03-22 08:30:00,,0826.9,4.99,0.00,22.3,23.1,00.0,31.2,24.2,10.3,0000.0,0005.51,0002.63,0001.81
2022-03-22 08:31:00,,0826.9,5.01,0.00,22.3,22.8,00.0,31.2,24.1,10.2,0000.0,0005.27,0002.60,0001.81
2022-03-22 08:32:00,,0826.8,4.99,0.00,22.2,22.4,00.0,31.2,24.0,10.2,0000.0,0005.96,0002.59,0001.81
2022-03-22 08:33:00,,0826.9,4.99,0.00,22.2,22.1,00.0,31.2,23.9,10.3,0000.0,0005.83,0002.55,0001.80
2022-03-22 08:34:00,,0826.9,5.01,0.00,22.1,21.8,00.0,31.2,23.8,10.3,0000.0,0005.76,0002.58,0001.81
2022-03-22 08:35:00,,0826.8,4.99,0.00,22.1,21.6,00.0,31.2,23.7,10.4,0000.0,0007.26,0002.57,0001.81
2022-03-22 08:36:00,,0826.8,5.01,0.00,22.0,21.4,00.0,31.1,23.6,10.4,0000.0,0007.45,0002.52,0001.79
2022-03-22 08:37:00,,0826.8,4.99,0.00,22.0,21.2,00.0,31.1,23.5,10.5,0000.0,0007.50,0002.57,0001.79
2022-03-22 08:38:00,,0826.8,5.00,0.00,21.9,21.1,00.0,31.1,23.5,10.5,0000.0,0007.71,0002.64,0001.79
2022-03-22 08:39:00,,0826.8,5.00,0.00,21.9,21.0,00.0,31.1,23.5,10.6,0000.0,0007.68,0002.63,0001.78
2022-03-22 08:40:00,,0826.8,5.01,0.00,21.8,21.0,00.0,31.1,23.4,10.6,0000.0,0007.63,0002.64,0001.78
2022-03-22 08:41:00,,0826.8,5.00,0.00,21.8,20.9,00.0,31.0,23.4,10.6,0000.0,0007.55,0002.61,0001.79
2022-03-22 08:42:00,,0826.7,5.00,0.00,21.8,20.9,00.0,31.0,23.4,10.6,0000.0,0007.10,0002.59,0001.78
2022-03-22 08:43:00,,0826.7,5.00,0.00,21.8,20.9,00.0,31.0,23.4,10.6,0000.0,0006.45,0002.62,0001.79
2022-03-22 08:44:00,,0826.7,5.00,0.00,21.7,20.8,00.0,31.0,23.3,10.7,0000.0,0006.57,0002.67,0001.81
2022-03-22 08:45:00,,0826.7,5.00,0.00,21.7,20.8,00.0,30.9,23.3,10.7,0000.0,0006.61,0002.67,0001.80
2022-03-22 08:46:00,,0826.7,5.00,0.00,21.6,20.7,00.0,30.9,23.3,10.7,0000.0,0005.07,0002.72,0001.82
2022-03-22 08:47:00,,0826.7,5.01,0.00,21.6,20.7,00.0,30.9,23.2,10.7,0000.0,0005.07,0002.79,0001.84
2022-03-22 08:48:00,,0826.7,5.00,0.00,21.6,20.7,00.0,30.8,23.2,10.7,0000.0,0005.09,0002.75,0001.85
2022-03-22 08:49:00,,0826.7,5.00,0.00,21.6,21.0,00.0,30.8,23.3,10.8,0000.0,0004.71,0002.68,0001.84
2022-03-22 08:50:00,,0826.7,5.00,0.00,21.7,22.0,00.0,30.9,23.6,10.7,0000.0,0004.69,0002.69,0001.84
2022-03-22 08:51:00,,0826.7,5.00,0.00,21.9,22.8,00.0,30.9,23.9,10.6,0000.0,0004.72,0002.70,0001.84
2022-03-22 08:52:00,,0826.7,4.99,0.00,22.0,22.8,00.0,30.9,24.0,10.5,0000.0,0004.79,0002.72,0001.84
2022-03-22 08:53:00,,0826.7,5.00,0.00,22.0,22.5,00.0,30.9,23.9,10.5,0000.0,0004.83,0002.72,0001.84
2022-03-22 08:54:00,,0826.7,4.99,0.00,22.0,22.1,00.0,30.9,23.8,10.5,0000.0,0005.76,0002.68,0001.84
2022-03-22 08:55:00,,0826.7,5.01,0.00,22.0,21.9,00.0,30.9,23.7,10.6,0000.0,0005.65,0002.65,0001.83
2022-03-22 08:56:00,,0826.7,4.99,0.00,21.9,21.6,00.0,30.9,23.7,10.6,0000.0,0005.45,0002.59,0001.82
2022-03-22 08:57:00,,0826.7,5.00,0.00,21.9,21.5,00.0,30.9,23.6,10.6,0000.0,0005.33,0002.54,0001.81
2022-03-22 08:58:00,,0826.7,4.99,0.00,21.9,21.3,00.0,30.9,23.5,10.6,0000.0,0005.66,0002.44,0001.80
2022-03-22 08:59:00,,0826.7,5.00,0.00,21.8,21.2,00.0,30.9,23.5,10.6,0000.0,0005.65,0002.43,0001.79
